Location: Copeville
(33.0796°N, 96.4155°W)
Time: 06:47:34
(UTC+00:00)

JUGNU - Pass Details

Date: 26 April 2024
Orbit: 835 x 862 km, 20.0° (Epoch: 19 May)

Event Time Altitude Azimuth Distance (km) Brightness Sun altitude
Rises 01:58:29 0° 248° (WSW) 3,364 ? -11.5°
Reaches altitude 10° 02:02:25 10° 223° (SW) 2,431 ? -12.2°
Maximum altitude 02:05:09 13° 195° (SSW) 2,196 ? -12.8°
Drops below altitude 10° 02:07:52 10° 166° (SSE) 2,436 ? -13.3°
Enters shadow 02:08:38 - 160° (SSE) 2,577 ? -13.4°
